Showing default

UITMSAT, 67686

Orbit data source: Space-Track

UITMSAT, 67686 is a payload satellite owned by UiTM (JP) in LEO that was delivered to the ISS. Payload-class satellites include a variety of spacecraft equipped with specific instruments for various scientific and technological missions. These include communications satellites like Starlink; space stations such as the ISS; scientific satellites like the Hubble; Earth observation satellites from companies like Planet Labs, Umbra, and HawkEye 360; GPS; miniature CubeSats for education and research; and military/defense satellites.

Loading next visibility...
Identifier
67686, 1998-067YC
Orbit
LEO
Country
Flag of JPJP / JPN
Related business
Manufacturer
UiTM
Mission
Operational spacecraft
Bus & Motor
CUBESAT 1U, Unknown motor
Mass
1 kg wet, 1 kg dry
Launch date (UTC)
1998-11-20 (28 years ago)
Launch vehicle
H3-24W
Launch site
Tyuratam Missile And Space Complex (TTMTR)
Object type
Payload
Rocket body
Debris
Shape & HBR
BOX, 0.1 m
Radar Cross Section
Medium (>0.1 m² and <1 m²)

Expand to show TLE details & history
Last TLE update: 21 hours ago

TLE from 21 hours ago
0 UITMSAT
1 67686U 98067YC  26253.59366184  .00179058  00000-0  83074-3 0  9998
2 67686  51.6208 214.7641 0007840 114.8320 245.3498 15.82332066 33748
Epoch: 2026-09-10T14:14Z
TLE epoch observation values (Epoch: 2026-09-10T14:14:52.382Z)
Latitude
-0.00008°
Longitude
11.41664°
Altitude
326.792 km
Speed
7.712 km/s
True Right ascension
14h 19m 03s
True Declination
0° 00' 00"
Sunlit
Object was in daylight at epoch
Visualization orbit readout
Latitude
Unknown
Longitude
Unknown
Altitude
Unknown
Speed
Unknown
Apparent Right ascension
Unknown
Apparent Declination
Unknown
Sunlit
N/A
Visualization observer readout
Local Sidereal Time
03:54:03
Azimuth
Unknown
Elevation
Unknown
Doppler factor
Unknown
Orbital elements
Apogee altitude
329.62 km
Perigee altitude
319.111 km
Semi-major axis
6,702.503 km
Eccentricity
0.00078
Inclination
51.6208°
RAAN
214.7641°
Arg. of periapsis
114.832°
True anomaly
245.26818°
Mean anomaly
245.3498°
Eccentric anomaly
245.30899°
Mean motion
3.95538 °/min
Orbital period
91.02 mins
BSTAR
0.00083074
Loading maneuver chart data...
Computing Atmospheric mass density...

Documentation

Showing up to 5 results
|